LogoCoinalyze
    Ad-Free Version ホーム マーケット一覧 資金調達率一覧
    先物データ
    • 集計データ (コイン一覧)
    • 個別チャート
    • 全体チャート
    アラート
    TA
    Bitcoin Ethereum BNB Ripple Tron ZCash Dogecoin Monero Chainlink UNUS SED LEO Cardano Stellar Lumens Bitcoin Cash Litecoin Hedera Cronos Polkadot Ethereum Classic Algorand Cosmos Quant Dash VeChain Bitcoin SV BitTorrent Terra Tezos Decred Iota The Graph THETA Decentraland NEO Chiliz MultiversX Horizen Golem Basic Attention Token Qtum DigiByte 0x Beam RIF Token FTX Token Holo FUNToken Ontology Zilliqa Nano Enjin Coin Ravencoin aelf Mask Network Verge Siacoin Status WINk Waves IoTeX iExec RLC Power Ledger Steem Kyber Network Crystal Lisk Ark WOO Network Ardor IOST WAX Icon Storj Wanchain Loopring Bitcoin Diamond Augur AdEx Bitcoin Gold OmiseGO NEM MonaCoin BitShares Ren Komodo V Systems Nuls Mithril SOLVE Maker EOS Aion Nebulas HedgeTrade Bread Fetch.ai TomoChain Polygon Fantom Waltonchain GXChain Bytom Metaverse ETP MaidSafeCoin QASH
    注文する:
    その他
    • API
    • ローソク足パターン
    • 寄付する
    • お問い合わせ
    • サイトマップ
    • Privacy Policy
    • Disclaimer
    • Theme:
    日本語
    • English
    • Français
    • Русский
    • Deutsch
    • Türkçe
    • Nederlands
    • Português (BR)
    • Español
    • 한국어
    • 简体中文
     
    ログイン / サインアップ
    Markets/ Pepe/ PEPE to EUR/ PEPEEUR Binance
    Trades
    WL
    チャット
    統計
    ニュース
    ⦷
    AAA
    0.00000313 15584251.00000000 02:13:20
    0.00000313 3960303.00000000 02:07:10
    0.00000313 1875933.00000000 02:07:10
    0.00000314 27210900.00000000 01:33:16
    0.00000316 79176993.00000000 01:08:42
    0.00000315 27286246.00000000 01:06:40
    0.00000314 5163000.00000000 01:05:39
    0.00000316 27017100.00000000 01:00:42
    0.00000316 5163044.00000000 00:56:12
    0.00000318 6309000.00000000 00:44:53
    0.00000318 54255293.00000000 00:43:45
    0.00000319 233494834.00000000 00:38:16
    0.00000319 27210900.00000000 00:37:58
    0.00000318 54254594.00000000 00:18:47
    0.00000318 6309148.00000000 00:11:35
    0.00000317 69.00000000 00:08:30
    0.00000317 27017100.00000000 00:08:30
    0.00000317 27017169.00000000 00:07:58
    0.00000318 27017169.00000000 00:04:49
    0.00000319 54169787.00000000 00:02:19
    0.00000319 83523500.00000000 00:00:09
    0.00000319 26963262.00000000 23:54:55
    0.00000319 26979200.00000000 23:54:45
    0.00000318 26979200.00000000 23:51:00
    0.00000318 27210900.00000000 23:50:30
    0.00000318 27046000.00000000 23:50:30
    0.00000315 27210900.00000000 23:22:01
    0.00000315 9878033.00000000 23:21:22
    0.00000316 8152174.00000000 22:53:43
    0.00000316 47638372.00000000 22:35:21
    0.00000318 26848881.00000000 22:30:01
    0.00000318 54259071.00000000 22:27:14
    0.00000319 26879400.00000000 22:25:36
    0.00000319 22177533.00000000 22:25:34
    0.00000319 116747417.00000000 22:25:34
    0.00000320 26879400.00000000 22:23:16
    0.00000320 47099452.00000000 22:12:16
    0.00000321 26503054.00000000 22:02:12
    0.00000321 2406418.00000000 22:01:34
    0.00000325 43608407.00000000 21:45:28
    0.00000325 26497436.00000000 21:44:38
    0.00000326 15028349.00000000 21:33:31
    0.00000325 26483401.00000000 21:30:08
    0.00000324 26483401.00000000 21:29:09
    0.00000325 26442085.00000000 21:23:01
    0.00000325 26462367.00000000 21:22:55
    0.00000326 26381194.00000000 21:22:31
    0.00000325 20551200.00000000 21:20:16
    0.00000324 20551200.00000000 21:17:36
    0.00000324 26543319.00000000 21:17:14
    0.00000324 87327900.00000000 21:13:06
    0.00000323 29109300.00000000 21:10:00
    0.00000323 85123960.00000000 21:10:00
    0.00000323 89389920.00000000 21:10:00
    0.00000323 89389920.00000000 21:10:00
    0.00000323 94614200.00000000 21:10:00
    0.00000323 24891800.00000000 21:10:00
    0.00000323 119506000.00000000 21:10:00
    0.00000323 119506000.00000000 21:10:00
    0.00000323 103373000.00000000 21:10:00
    0.00000323 105487000.00000000 21:10:00
    0.00000323 85313000.00000000 21:10:00
    0.00000323 69165000.00000000 21:10:00
    0.00000323 69367000.00000000 21:10:00
    0.00000323 190706000.00000000 21:10:00
    0.00000323 125296800.00000000 21:10:00
    0.00000323 116747417.00000000 21:10:00
    0.00000323 102778902.00000000 21:09:55
    0.00000323 157113401.00000000 21:09:55
    0.00000323 116747417.00000000 21:09:55
    0.00000323 86936999.00000000 21:09:54
    0.00000323 116747417.00000000 21:09:53
    0.00000323 116747417.00000000 21:09:53
    0.00000323 116747417.00000000 21:09:48
    0.00000323 116747417.00000000 21:09:48
    0.00000323 101686272.00000000 21:09:48
    0.00000323 129655508.00000000 21:09:48
    0.00000323 94109354.00000000 21:09:48
    0.00000323 100000000.00000000 21:09:48
    0.00000323 119999999.00000000 21:09:48
    0.00000323 87636686.00000000 21:09:48
    0.00000323 87636686.00000000 21:09:48
    0.00000323 162436865.00000000 21:09:48
    0.00000323 152950762.00000000 21:09:48
    0.00000323 2147483646.00000000 21:09:48
    0.00000323 87546710.00000000 21:09:47
    0.00000323 87546710.00000000 21:09:47
    0.00000323 137090919.00000000 21:09:47
    0.00000323 94961000.00000000 21:09:47
    0.00000323 100000000.00000000 21:09:47
    0.00000323 118181885.00000000 21:09:47
    0.00000323 163636468.00000000 21:09:47
    0.00000323 140285999.00000000 21:09:47
    0.00000323 163636468.00000000 21:09:47
    0.00000323 119999999.00000000 21:09:47
    0.00000323 125301441.00000000 21:09:47
    0.00000323 126507200.00000000 21:09:47
    0.00000323 132535985.00000000 21:09:46
    0.00000323 100000000.00000000 21:09:46
    0.00000323 97559845.00000000 21:09:46
    ログアウト
    AAA
    ヘルプ
    🙂 🤣 😎 🤗 😛 😉 😜 🤑 🤔 😑 😴 😕 🙃 😲 😇 🙁 😢 😬 😟 😠 🕺 🏃 💪 ✌ 👌 👍 👎 👏 👋 🤝 🍺 🍻 🐋 🐟 🦈 🗽 🚄 ✈ 🛑 🚀 🏦 🌚 ⭐ 🌞 ⚡ 🏆 💰 💲 🔨 ❓ ❗ 💯 🔶 🏁
    ☺
    ログイン または サインアップ してチャット
    24時間
    変化
    +5.03%
    出来高
    53,139,745,911
    最高値
    0.00000333
    最安値
    0.00000294
    7日間
    変化
    -6.29%
    出来高
    1,044,634,457,620
    最高値
    0.00000340
    最安値
    0.00000290
    30日間
    変化
    +24.70%
    出来高
    2,760,521,594,204
    最高値
    0.00000388
    最安値
    0.00000219
    DOGE, SHIB, PEPE, or Something Else: Which Meme Coin Can Make History in September? (3 AIs Weigh In)
    "DOGE remains the most likely to record the largest move in dollar terms and lead the entire sector," ChatGPT stated.
    cryptopotato.com
    Sept 3, 2026 00:41
    Pepe price rallies 25% as whale demand and futures interest surge
    Key takeaways Pepe has gained 25% this week, including a combined 22% advance over the previous two days. Seven whale transactions worth more than $1 million each occurred Thursday, the highest...
    coinjournal.net
    Aug 21, 2026 08:41
    PEPE Supply on Exchanges Just Took a Massive Hit – What’s Next?
    A drop in PEPE exchange balances has added to bullish expectations despite muted trader interest.
    cryptopotato.com
    Aug 6, 2026 20:02
    PEPE Exchange Outflows Hit Nearly 2-Year High as Whales Accumulate
    Pepe (PEPE) recorded its largest single-day exchange outflow since November 2024, with 4.54 trillion tokens leaving trading platforms, signaling that holders are moving supply away from immediate...
    beincrypto.com
    Aug 6, 2026 04:57
    Meme Coin Based on White House Shooter Conspiracy Rallies 320%
    $HENRY surged 300% after a 2023 Pepe tweet appeared to name the White House shooter, fueling a viral time-travel meme. The post Meme Coin Based on White House Shooter Conspiracy Rallies 320%...
    beincrypto.com
    Apr 27, 2026 16:11
    PEPE surges 4% as market sentiment improves, eyes Key resistance breakout
    Key takeaways Pepe extends gains on Wednesday, stretching its rally from the 50-day EMA. Derivatives data show heightened retail activity as risk-on sentiment returns to the market. Pepe (PEPE) is...
    coinjournal.net
    Apr 22, 2026 11:44
    Why The PEPE Price Could Stage A 55X Rally To Reach New $0.0001 ATH
    The PEPE price has now started to edge back into bullish conversations after the recent inflows into the crypto market. The last time PEPE’s weekly chart printed the kind of structure now...
    newsbtc.com
    Apr 21, 2026 15:30
    Pepe (PEPE) surges 9%, drawing interest from whales
    Key takeaways PEPE is up 9% in the last 24 hours, making it one of the best performers among the top 50 cryptocurrencies by market cap. The rally comes amid renewed interest from whales and retail...
    coinjournal.net
    Apr 16, 2026 07:40
    Murad Says SPX6900 (SPX) Is Primed for a Rally — Is He Right This Time?
    Crypto influencer Murad Mahmudov claims SPX6900 (SPX) is stabilizing at the same market cap level where Dogecoin (DOGE) and Pepe (PEPE) consolidated before their explosive rallies. The...
    beincrypto.com
    Apr 5, 2026 21:36
    The Shiba Inu Of This Cycle: Analyst Shares Why It Is Better To Buy PEPE Now
    In the bull market cycle of 2021-2022, the Shiba Inu meme coin made waves in a way that changed the face of meme coins forever. This came after Dogecoin’s initial 36,000% rally, and Shiba Inu...
    newsbtc.com
    Apr 4, 2026 07:30
    PEPE Explodes by 18% Amid Altcoin Rally, BTC Tapped $74K: Market Watch
    The frog-themed meme coin is today's biggest gainer, followed by TAO, DOT, and BONK.
    cryptopotato.com
    Mar 16, 2026 10:56
    Should PEPE traders brace for volatility as short squeeze potential builds?
    The memecoin market has seen its collective market capitalization drop by 48% over the past year, and 6.9% over the past month, according to CoinMarketCap. According to Glassnode, the memecoin...
    ambcrypto.com
    Mar 7, 2026 18:00
    チャットでコマンドを入力するだけです。 nick1を実際のニックネームに置き換えてください
    • /ignore nick1 チャットユーザーを無視する
    • /unignore nick1 チャットユーザーを無視しない
    • /ignorelist 無視したチャットユーザーを表示する